Temp
-3 -3 -3 -3 -3 -2 -2 -2 -2 -2 -2 -2 -1 -1 -2 -2 -2 -2 -2 -2 -2 -4 -3 -4 -4 -5 -6 -5 -5 -5 -4 -5 -6 -7 -7 -5 -5 -6 -5 -5 -5 -6 -6 -6 -6
-4 -3 -3 -3 -3 -3 -3 -3 -2 -2 -2 -2 -2 -2 -2 -2 -2 -2 -2 -2 -3 -4 -4 -4 -5 -5 -5 -7 -6 -5 -5 -6 -6 -7 -6 -5 -4 -5 -5 -5 -5 -5 -5 -6 -6
-4 -4 -4 -3 -3 -3 -3 -3 -3 -3 -3 -2 -2 -2 -2 -2 -2 -2 -2 -3 -3 -4 -4 -5 -5 -5 -6 -7 -5 -8 -7 -7 -6 -5 -5 -4 -4 -4 -6 -5 -5 -5 -5 -5 -5
-4 -4 -4 -4 -4 -4 -3 -3 -3 -3 -3 -3 -3 -3 -3 -3 -3 -3 -3 -3 -3 -4 -4 -4 -5 -5 -6 -6 -7 -4 -7 -6 -6 -6 -5 -4 -4 -4 -6 -5 -5 -5 -5 -5 -5
-4 -4 -4 -4 -4 -4 -4 -4 -4 -3 -3 -3 -3 -3 -3 -3 -3 -3 -3 -3 -4 -4 -4 -4 -5 -8 -7 -8 -6 -6 -6 -6 -6 -6 -5 -5 -5 -5 -5 -5 -5 -5 -5 -5 -5
-4 -4 -4 -4 -4 -4 -4 -4 -4 -4 -4 -4 -4 -3 -3 -3 -3 -3 -3 -3 -4 -4 -4 -4 -5 -6 -7 -8 -7 -6 -6 -6 -5 -5 -6 -5 -5 -5 -5 -5 -4 -5 -5 -5 -5
-4 -4 -4 -4 -4 -4 -4 -4 -4 -4 -4 -4 -4 -4 -4 -4 -4 -4 -4 -4 -4 -4 -5 -5 -5 -5 -7 -7 -7 -7 -6 -6 -6 -6 -6 -5 -5 -5 -5 -5 -4 -4 -5 -5 -5
-4 -4 -4 -4 -4 -4 -4 -4 -4 -4 -4 -4 -4 -4 -4 -4 -4 -4 -4 -4 -4 -4 -5 -5 -5 -5 -6 -7 -6 -7 -6 -6 -6 -6 -6 -6 -7 -6 -5 -5 -5 -5 -5 -5 -5
-5 -4 -4 -4 -4 -4 -4 -4 -4 -4 -4 -4 -4 -4 -4 -4 -4 -4 -4 -4 -4 -4 -4 -5 -5 -5 -7 -7 -5 -6 -7 -7 -7 -6 -6 -6 -8 -6 -5 -5 -5 -5 -5 -5 -5
-5 -5 -5 -4 -4 -4 -4 -4 -4 -4 -4 -4 -4 -4 -4 -4 -4 -4 -4 -4 -4 -4 -4 -5 -5 -7 -7 -7 -6 -7 -7 -6 -7 -6 -6 -6 -6 -5 -5 -5 -5 -5 -5 -5 -6
-5 -5 -5 -5 -5 -5 -5 -5 -4 -4 -4 -4 -4 -4 -4 -4 -4 -4 -4 -4 -4 -4 -4 -5 -8 -8 -7 -7 -8 -8 -6 -7 -7 -6 -6 -6 -6 -6 -6 -5 -6 -6 -5 -6 -5
-5 -5 -5 -5 -5 -5 -5 -5 -5 -4 -4 -4 -4 -4 -4 -4 -4 -4 -4 -5 -5 -5 -5 -5 -7 -8 -7 -7 -7 -7 -6 -6 -7 -6 -6 -6 -7 -6 -6 -5 -5 -5 -5 -5 -5
-6 -6 -5 -5 -5 -5 -5 -5 -5 -5 -5 -4 -4 -4 -4 -4 -4 -4 -4 -5 -5 -5 -5 -5 -8 -8 -8 -8 -8 -7 -6 -7 -7 -6 -6 -7 -6 -7 -6 -5 -5 -5 -5 -5 -5
-6 -6 -6 -5 -6 -6 -5 -5 -5 -5 -5 -5 -4 -4 -4 -4 -4 -4 -4 -5 -5 -5 -5 -5 -7 -8 -8 -7 -8 -7 -6 -7 -6 -6 -6 -7 -5 -5 -7 -5 -5 -5 -5 -5 -5
-7 -7 -6 -6 -6 -6 -6 -6 -6 -6 -6 -5 -5 -4 -5 -5 -4 -4 -4 -5 -5 -5 -5 -5 -5 -6 -7 -8 -8 -7 -7 -7 -5 -5 -6 -5 -6 -6 -7 -6 -5 -5 -5 -5 -6
-7 -7 -7 -7 -7 -7 -6 -6 -7 -6 -7 -5 -5 -5 -5 -5 -5 -4 -4 -5 -5 -5 -5 -5 -6 -5 -8 -8 -8 -6 -6 -6 -6 -6 -6 -6 -6 -6 -6 -7 -6 -6 -5 -5 -6
-7 -7 -7 -7 -7 -7 -7 -7 -7 -7 -7 -6 -6 -5 -5 -5 -5 -5 -5 -5 -5 -5 -5 -5 -5 -5 -5 -7 -8 -6 -6 -6 -6 -6 -5 -6 -5 -6 -6 -7 -6 -5 -5 -6 -6
-8 -8 -8 -7 -7 -7 -7 -7 -7 -7 -7 -6 -6 -6 -6 -6 -5 -5 -5 -5 -5 -5 -6 -5 -5 -5 -5 -5 -8 -7 -7 -6 -6 -6 -6 -6 -6 -6 -6 -7 -6 -6 -6 -6 -6
-9 -8 -8 -8 -8 -8 -8 -7 -7 -8 -7 -6 -6 -7 -6 -6 -6 -6 -5 -5 -5 -5 -5 -7 -6 -7 -5 -5 -6 -7 -7 -7 -6 -5 -5 -5 -6 -6 -6 -6 -7 -7 -6 -6 -6
-9 -9 -9 -9 -9 -9 -8 -8 -9 -7 -7 -7 -8 -7 -9 -7 -6 -6 -6 -6 -6 -6 -6 -7 -7 -7 -6 -5 -5 -6 -7 -7 -6 -6 -5 -6 -5 -6 -5 -7 -7 -7 -6 -6 -6
-9 -9 -9 -9 -9 -9 -9 -9 -9 -8 -8 -8 -8 -7 -8 -10 -7 -8 -7 -8 -6 -6 -6 -6 -7 -7 -6 -5 -7 -6 -6 -6 -6 -7 -6 -5 -6 -7 -7 -7 -7 -8 -7 -6 -6
-10 -10 -9 -9 -9 -9 -9 -9 -8 -8 -8 -8 -8 -8 -8 -9 -9 -8 -9 -9 -8 -7 -6 -6 -7 -7 -7 -7 -6 -8 -7 -7 -7 -6 -6 -6 -6 -6 -7 -7 -7 -7 -7 -7 -6
-10 -10 -10 -10 -10 -10 -10 -9 -9 -9 -9 -9 -8 -9 -9 -9 -8 -9 -10 -9 -8 -7 -7 -6 -6 -8 -8 -8 -7 -5 -7 -7 -7 -6 -6 -6 -6 -7 -7 -6 -7 -7 -7 -7 -7
-11 -11 -11 -10 -10 -10 -10 -10 -9 -9 -9 -9 -9 -9 -8 -9 -9 -9 -10 -10 -8 -8 -7 -7 -8 -8 -7 -7 -7 -7 -7 -8 -7 -6 -6 -6 -6 -7 -7 -7 -7 -7 -8 -7 -7
-11 -11 -10 -11 -11 -11 -10 -10 -9 -9 -9 -10 -9 -9 -10 -11 -11 -11 -11 -10 -9 -8 -7 -7 -7 -9 -8 -8 -8 -8 -8 -8 -8 -7 -7 -7 -7 -7 -7 -7 -7 -7 -7 -8 -8
-11 -11 -11 -11 -11 -11 -11 -10 -10 -10 -10 -11 -10 -12 -11 -10 -11 -10 -10 -10 -10 -8 -8 -8 -8 -9 -9 -8 -8 -8 -8 -8 -8 -8 -8 -7 -7 -7 -7 -8 -7 -8 -8 -8 -8
-12 -12 -12 -12 -12 -11 -11 -11 -11 -11 -10 -11 -12 -12 -11 -11 -11 -11 -10 -10 -8 -9 -9 -9 -10 -9 -9 -8 -8 -8 -8 -8 -8 -8 -7 -7 -8 -8 -8 -8 -8 -8 -7 -7 -8
Height
5902 5903 5905 5907 5908 5910 5911 5912 5913 5914 5915 5915 5915 5915 5915 5915 5915 5916 5915 5915 5914 5914 5913 5912 5912 5910 5909 5909 5909 5907 5903 5905 5906 5904 5901 5896 5897 5895 5895 5895 5895 5894 5894 5894 5893
5900 5902 5903 5905 5906 5908 5909 5910 5911 5912 5913 5914 5915 5915 5915 5915 5915 5915 5915 5915 5914 5914 5913 5912 5912 5911 5910 5910 5912 5910 5909 5905 5906 5904 5901 5899 5897 5896 5896 5896 5896 5896 5896 5895 5895
5898 5900 5901 5903 5905 5906 5907 5908 5910 5910 5911 5912 5913 5913 5913 5914 5914 5914 5914 5914 5914 5913 5912 5911 5911 5911 5912 5916 5916 5912 5910 5907 5905 5903 5901 5899 5897 5897 5899 5898 5897 5897 5896 5896 5896
5895 5897 5899 5901 5903 5904 5906 5906 5907 5908 5909 5910 5911 5912 5912 5913 5915 5913 5913 5913 5913 5913 5911 5911 5912 5913 5914 5915 5915 5915 5910 5908 5906 5904 5901 5900 5899 5898 5898 5898 5896 5896 5896 5896 5896
5892 5894 5896 5898 5900 5902 5903 5904 5905 5906 5907 5908 5909 5910 5911 5912 5912 5912 5913 5913 5913 5913 5911 5911 5912 5914 5916 5918 5913 5912 5911 5909 5907 5905 5903 5901 5899 5899 5898 5898 5897 5896 5896 5897 5897
5889 5891 5893 5895 5896 5898 5900 5901 5903 5904 5905 5906 5907 5908 5909 5911 5911 5912 5912 5912 5913 5913 5912 5912 5912 5913 5913 5916 5914 5913 5912 5910 5908 5906 5905 5903 5902 5901 5900 5899 5898 5897 5896 5897 5898
5885 5887 5889 5891 5893 5895 5897 5898 5900 5901 5902 5904 5904 5906 5907 5908 5909 5910 5910 5911 5913 5913 5912 5912 5912 5912 5914 5914 5915 5914 5913 5911 5909 5908 5907 5906 5905 5902 5902 5900 5899 5899 5898 5898 5899
5880 5883 5885 5888 5890 5892 5894 5895 5897 5898 5899 5901 5902 5903 5904 5905 5907 5908 5909 5910 5912 5913 5913 5912 5911 5912 5914 5917 5917 5915 5915 5915 5912 5910 5910 5908 5907 5906 5905 5903 5902 5901 5901 5900 5900
5875 5877 5880 5883 5886 5888 5890 5892 5894 5895 5896 5898 5900 5901 5903 5903 5905 5906 5908 5909 5911 5912 5912 5911 5911 5913 5917 5916 5907 5915 5917 5918 5913 5911 5911 5909 5910 5908 5906 5905 5905 5904 5903 5902 5901
5869 5872 5874 5878 5880 5883 5885 5888 5890 5892 5894 5895 5897 5899 5901 5902 5903 5904 5906 5907 5909 5910 5911 5911 5911 5913 5919 5920 5914 5916 5919 5916 5916 5913 5910 5909 5909 5908 5907 5906 5906 5905 5904 5903 5902
5864 5866 5869 5872 5875 5877 5880 5883 5886 5888 5890 5892 5895 5896 5897 5899 5900 5903 5904 5905 5907 5909 5910 5910 5911 5918 5925 5918 5916 5918 5920 5918 5915 5914 5912 5910 5911 5910 5908 5908 5907 5906 5905 5905 5904
5858 5861 5863 5866 5869 5871 5874 5877 5880 5884 5885 5887 5890 5892 5895 5896 5897 5900 5901 5904 5905 5907 5908 5909 5910 5917 5921 5914 5915 5920 5920 5914 5914 5914 5914 5913 5913 5912 5910 5908 5908 5907 5906 5905 5904
5852 5855 5857 5860 5863 5865 5868 5871 5874 5877 5881 5883 5885 5887 5891 5893 5894 5896 5899 5900 5903 5905 5906 5907 5914 5912 5915 5913 5916 5921 5917 5914 5914 5913 5915 5914 5911 5908 5910 5908 5907 5906 5905 5904 5904
5846 5849 5851 5854 5858 5859 5862 5866 5869 5872 5875 5878 5880 5882 5887 5888 5890 5892 5896 5898 5900 5903 5904 5905 5907 5912 5915 5911 5915 5920 5914 5912 5910 5912 5904 5911 5905 5892 5908 5907 5905 5905 5905 5905 5904
5840 5843 5845 5848 5850 5853 5857 5860 5863 5867 5871 5869 5873 5880 5882 5885 5885 5889 5891 5894 5897 5900 5902 5904 5903 5906 5908 5911 5913 5916 5908 5909 5908 5908 5914 5912 5908 5907 5908 5905 5903 5903 5901 5902 5902
5833 5836 5839 5842 5845 5848 5851 5854 5858 5862 5864 5863 5869 5872 5877 5878 5882 5882 5888 5890 5893 5895 5898 5900 5901 5902 5906 5906 5909 5908 5909 5910 5910 5912 5914 5895 5911 5905 5886 5907 5903 5902 5901 5901 5901
5827 5829 5832 5835 5838 5841 5845 5849 5854 5856 5856 5860 5863 5867 5871 5873 5876 5879 5883 5886 5889 5892 5895 5897 5898 5899 5901 5903 5908 5906 5909 5914 5914 5912 5898 5904 5908 5904 5904 5904 5903 5901 5901 5900 5900
5821 5823 5826 5828 5831 5834 5838 5843 5846 5849 5849 5853 5859 5862 5865 5868 5871 5874 5877 5881 5884 5887 5891 5894 5896 5897 5898 5899 5905 5906 5909 5914 5912 5906 5905 5906 5909 5907 5902 5901 5901 5901 5900 5899 5898
5815 5817 5820 5822 5826 5829 5832 5836 5841 5842 5843 5847 5853 5856 5859 5862 5866 5868 5872 5876 5879 5883 5887 5893 5893 5895 5892 5895 5899 5904 5907 5910 5912 5913 5911 5912 5905 5910 5905 5898 5898 5900 5898 5897 5896
5811 5813 5815 5817 5820 5823 5827 5830 5832 5833 5837 5842 5847 5850 5856 5856 5860 5863 5867 5870 5874 5877 5880 5884 5887 5891 5889 5890 5894 5896 5907 5906 5909 5910 5909 5905 5906 5906 5902 5898 5898 5898 5899 5897 5896
5806 5809 5811 5813 5816 5819 5822 5825 5826 5828 5831 5836 5839 5842 5848 5854 5853 5859 5862 5865 5867 5871 5874 5879 5882 5888 5886 5886 5892 5893 5895 5899 5906 5898 5907 5909 5905 5892 5898 5895 5897 5897 5898 5897 5896
5801 5804 5806 5808 5812 5814 5817 5819 5821 5824 5826 5831 5834 5838 5841 5845 5848 5852 5856 5859 5862 5865 5867 5873 5877 5880 5885 5884 5885 5889 5891 5895 5902 5904 5905 5906 5907 5904 5900 5896 5897 5896 5896 5897 5896
5795 5798 5801 5803 5806 5809 5811 5814 5815 5818 5821 5825 5828 5831 5834 5838 5842 5846 5850 5853 5854 5858 5861 5866 5870 5874 5878 5883 5880 5883 5887 5894 5897 5902 5903 5901 5906 5899 5898 5894 5894 5893 5894 5894 5893
5790 5793 5795 5798 5801 5804 5806 5808 5811 5812 5815 5819 5822 5824 5827 5832 5836 5841 5845 5846 5849 5852 5854 5859 5863 5868 5876 5879 5880 5878 5880 5886 5893 5897 5900 5902 5902 5900 5897 5893 5890 5889 5890 5890 5890
5783 5785 5789 5792 5795 5798 5801 5803 5805 5805 5808 5811 5816 5819 5824 5828 5832 5837 5841 5845 5843 5846 5849 5853 5857 5862 5867 5871 5875 5876 5876 5878 5883 5889 5893 5896 5894 5896 5894 5896 5886 5887 5886 5886 5886
5776 5779 5782 5786 5788 5792 5794 5797 5798 5799 5800 5806 5810 5815 5817 5820 5828 5833 5838 5843 5843 5841 5844 5847 5851 5855 5859 5864 5866 5869 5872 5874 5877 5881 5885 5887 5888 5890 5890 5892 5887 5884 5883 5883 5883
5767 5771 5775 5779 5782 5786 5789 5790 5792 5792 5794 5800 5800 5805 5808 5815 5816 5818 5823 5829 5831 5828 5836 5841 5846 5853 5856 5859 5861 5862 5864 5870 5874 5877 5882 5882 5884 5883 5885 5887 5885 5881 5879 5880 5880
Wind_Speed
15 14 14 13 13 12 12 12 11 10 10 9 9 7 5 5 6 6 6 7 9 11 7 6 8 8 7 6 9 8 26 9 9 15 16 13 6 4 6 3 1 3 3 3 5
17 16 15 15 14 13 13 12 11 11 9 8 8 6 4 5 4 6 6 7 8 9 5 4 7 7 5 9 10 13 13 13 11 7 6 11 9 6 6 3 2 3 2 3 4
19 18 17 16 15 14 14 13 12 11 10 9 8 6 5 5 5 5 6 6 8 7 3 5 6 6 10 10 7 6 8 11 13 12 10 11 12 7 5 3 5 4 3 3 4
22 20 19 18 16 15 14 14 13 12 12 10 9 7 7 6 5 4 4 6 7 7 2 2 3 9 5 10 5 6 8 12 15 12 12 11 10 11 8 3 4 4 3 3 3
23 23 21 19 17 16 15 14 13 13 13 12 11 10 9 8 6 4 3 4 6 6 1 1 3 2 3 4 1 6 7 15 16 9 10 11 14 10 7 5 5 6 6 4 4
24 23 23 22 21 20 18 16 14 14 13 13 13 13 12 10 8 6 3 3 6 5 1 2 2 4 5 1 3 5 11 13 11 7 10 11 13 6 8 6 7 8 9 8 7
27 25 24 22 21 21 20 19 17 15 14 13 13 13 13 11 10 7 5 4 4 5 3 1 3 4 4 4 9 14 15 13 8 9 9 10 12 17 10 9 10 11 10 9 7
30 29 28 26 24 23 21 20 20 18 17 15 14 13 12 13 11 9 7 5 1 1 3 1 3 2 5 7 9 18 7 8 8 8 8 8 12 10 11 13 12 10 9 7 5
31 31 30 29 28 27 24 22 22 20 19 18 16 15 12 14 12 11 10 8 4 2 1 1 3 2 4 5 8 12 10 10 12 9 7 8 6 7 8 8 8 6 6 6 4
30 31 31 31 29 28 27 25 24 23 23 21 19 17 14 14 14 13 12 11 7 6 3 4 4 2 8 12 13 8 8 11 6 6 10 10 11 6 6 7 7 7 6 6 5
28 27 29 30 30 29 29 27 26 26 24 25 20 19 18 16 16 14 14 12 10 8 6 5 7 5 3 12 14 3 3 10 5 3 9 11 14 16 8 7 5 6 7 8 7
30 29 29 28 27 29 29 29 28 26 25 25 25 24 21 19 18 16 15 14 12 10 9 8 10 11 13 23 14 2 8 6 10 3 5 7 3 7 8 9 7 5 5 6 5
30 30 31 30 29 28 28 28 28 27 25 26 26 27 25 22 21 19 16 15 14 13 10 8 13 10 16 12 3 5 8 15 13 6 5 2 3 3 6 7 6 6 7 9 8
29 30 30 31 30 30 30 29 27 27 27 28 28 29 25 25 24 22 18 17 16 14 13 12 15 14 17 14 9 10 18 15 8 8 16 3 15 14 7 10 9 9 10 11 12
26 27 28 28 28 28 28 28 28 27 23 33 31 25 26 26 29 23 21 19 16 15 16 11 13 14 18 14 11 15 21 13 8 8 5 9 12 29 5 6 8 12 17 15 14
28 28 27 28 27 27 25 25 24 25 24 33 27 28 27 29 26 31 23 21 20 18 18 16 18 15 17 16 17 15 8 2 6 6 11 1 2 21 7 6 13 14 16 13 14
28 27 27 28 28 28 28 26 26 26 31 31 29 27 27 28 28 28 26 24 20 19 17 18 19 18 16 17 16 13 9 7 7 12 20 8 7 17 4 12 16 17 15 13 8
27 27 25 26 26 27 28 29 29 29 33 32 27 26 27 28 29 28 29 26 24 22 17 19 20 20 17 13 17 17 15 10 10 16 17 18 5 15 13 19 16 14 13 13 11
22 23 23 24 24 24 25 25 22 29 34 31 27 27 27 30 29 30 30 27 25 24 22 14 20 17 23 17 17 18 17 16 14 11 13 12 12 7 9 1 13 11 9 9 9
21 21 19 20 20 21 23 22 24 30 28 25 24 28 19 28 30 30 28 29 27 26 25 21 21 20 24 24 18 20 13 15 13 12 13 9 3 12 16 7 22 13 8 5 2
21 20 19 19 20 20 18 20 25 25 26 25 29 30 30 16 27 23 27 26 30 29 28 27 21 17 26 26 18 21 25 19 16 15 7 7 16 13 6 20 17 12 12 7 5
22 22 21 21 20 21 21 24 24 23 23 22 24 24 30 26 26 27 20 23 26 29 32 28 23 22 20 24 24 23 19 20 16 13 10 12 11 13 12 17 20 16 16 12 11
25 23 22 21 19 19 21 21 24 25 25 23 24 25 28 32 28 26 20 22 30 29 33 29 29 22 21 18 26 24 24 21 19 17 17 11 8 7 10 25 16 20 17 17 16
27 24 24 24 23 21 20 20 22 26 29 28 27 29 31 29 27 23 17 21 26 25 31 29 27 24 20 20 21 24 27 25 23 21 16 15 14 16 12 11 17 13 12 14 17
28 29 25 24 24 24 22 22 21 26 28 30 28 27 27 26 23 20 19 18 22 24 25 24 27 25 21 21 20 23 24 27 25 24 22 17 22 8 10 11 14 17 13 17 17
31 29 28 28 26 24 23 22 22 23 28 27 27 22 30 32 24 17 17 17 17 25 23 21 22 21 21 22 23 22 23 26 26 24 23 23 22 18 17 13 23 22 17 16 12
30 31 30 29 28 26 22 23 22 24 23 26 29 34 30 27 35 39 36 31 26 12 17 17 18 17 19 19 20 25 23 23 24 22 23 24 21 18 16 14 20 24 21 15 14
Wind_Direction
224 226 229 234 236 239 242 247 256 261 267 277 288 300 315 323 332 348 354 357 6 54 44 43 53 54 58 37 45 33 6 28 350 331 345 10 38 29 66 52 96 106 130 141 117
225 228 229 233 236 240 245 248 251 255 260 268 272 281 291 297 317 336 346 360 20 62 59 59 69 69 67 45 27 36 343 336 351 347 360 7 34 69 73 120 131 124 114 93 97
228 229 230 231 234 240 246 251 252 253 255 253 256 253 264 280 302 331 343 5 34 71 78 83 97 91 59 36 326 356 347 337 344 353 1 16 28 54 38 93 124 135 126 93 83
231 229 229 231 232 236 241 246 249 250 249 247 247 247 251 267 280 306 345 360 43 71 83 96 106 87 275 350 293 57 1 340 337 355 357 28 32 48 81 100 115 104 93 76 78
234 232 231 231 233 235 237 244 248 250 253 252 251 250 250 256 269 285 333 346 51 64 59 72 110 108 339 276 242 5 360 337 336 353 6 23 32 40 59 87 98 91 82 67 67
235 234 234 234 235 237 238 241 246 249 250 251 252 251 250 250 258 264 292 330 37 49 6 5 196 171 115 257 355 28 7 353 352 18 31 37 40 64 59 79 88 93 92 82 75
234 235 236 236 238 239 240 240 242 247 252 253 254 252 252 252 253 256 261 293 24 41 8 350 271 197 173 142 39 22 10 7 15 26 39 52 57 59 62 86 99 99 93 88 77
234 235 235 235 237 240 240 241 242 242 247 251 253 253 253 255 254 253 255 266 356 38 20 350 287 245 201 108 41 27 354 38 350 1 27 20 39 60 78 89 93 90 88 81 71
238 237 237 237 237 239 240 241 241 242 242 244 250 252 251 255 252 251 250 252 232 217 87 331 267 287 168 323 254 112 336 333 341 339 14 47 64 60 69 82 84 86 86 75 64
240 241 242 240 240 239 240 239 241 239 239 240 242 248 250 254 249 246 244 243 232 224 204 165 235 135 21 287 315 45 319 326 331 3 60 76 71 67 77 78 88 81 84 104 108
242 241 242 242 242 242 242 241 239 239 240 239 241 243 238 246 252 249 245 243 229 225 227 195 217 201 204 242 261 258 38 300 273 27 61 81 66 56 85 96 69 75 86 87 84
243 243 243 242 242 242 241 242 241 240 239 240 238 238 236 243 246 245 244 238 231 221 224 217 238 193 240 244 234 135 299 228 274 260 40 59 53 44 58 64 53 49 60 52 56
245 244 244 244 243 242 242 241 242 243 242 239 237 238 236 239 244 244 241 239 226 223 221 220 221 220 247 240 221 298 297 278 258 229 258 272 292 160 350 15 11 5 349 341 343
244 244 244 244 243 242 243 242 242 241 242 240 238 237 235 236 241 243 241 242 232 224 225 221 220 213 256 236 200 253 257 268 247 227 306 58 295 130 317 333 340 339 327 317 320
243 242 241 242 242 241 241 242 242 240 236 242 237 238 235 235 240 243 241 239 239 226 226 219 241 224 234 232 231 220 261 234 237 211 300 243 282 310 242 310 338 342 339 343 342
243 243 242 241 240 240 238 237 238 237 230 241 239 237 236 236 238 241 239 236 233 231 226 221 229 232 225 235 228 238 217 25 337 312 269 49 131 312 64 304 310 319 324 338 345
244 243 242 240 239 238 237 235 233 231 237 245 240 238 234 235 236 242 241 239 240 238 234 230 233 240 230 227 229 226 216 288 295 272 272 152 34 263 349 307 301 311 310 330 327
242 241 239 240 237 236 235 234 232 228 235 241 242 239 236 237 234 237 239 239 238 237 231 233 234 243 237 228 210 254 219 223 299 291 329 336 221 278 324 322 302 293 299 319 313
240 241 236 237 236 233 231 231 228 232 232 237 235 235 235 236 234 235 236 237 237 239 235 235 243 246 239 228 212 219 233 230 244 273 295 237 304 320 266 246 315 289 305 321 324
236 236 233 230 229 228 228 224 219 232 237 231 221 227 231 235 235 237 236 236 232 234 232 221 231 228 246 238 221 213 225 240 252 240 272 280 293 274 274 302 289 285 292 338 27
230 231 229 229 229 230 225 221 230 232 230 222 215 227 219 218 233 230 229 232 231 231 232 231 238 232 240 243 227 225 215 203 212 243 272 285 286 284 315 286 281 281 284 291 324
226 232 232 232 231 230 228 229 234 234 233 223 227 230 223 225 230 218 231 230 236 226 234 231 232 236 233 240 239 224 227 220 225 251 247 247 262 311 263 275 287 275 289 294 297
227 229 232 231 228 227 231 235 235 235 235 225 223 221 221 224 230 222 232 227 233 227 231 228 228 225 228 245 232 237 223 233 226 233 251 266 238 230 291 296 305 272 276 295 299
228 229 229 229 229 232 232 237 240 239 238 236 228 225 225 225 230 225 227 240 233 226 230 228 226 228 222 237 245 234 225 221 221 228 238 247 241 269 280 311 307 275 281 286 293
228 228 231 229 228 229 235 239 244 244 239 236 230 228 221 225 224 237 218 242 238 228 227 228 232 229 228 221 231 237 239 227 225 223 226 231 257 250 277 258 282 273 263 279 281
233 229 229 230 231 231 234 243 246 244 241 232 228 223 222 223 196 212 223 229 251 236 221 222 227 229 226 234 232 235 231 236 229 230 232 235 245 239 253 275 280 257 267 280 261
235 230 230 227 229 229 234 238 244 241 247 220 217 214 223 219 213 207 202 203 214 202 220 228 221 219 237 240 234 238 230 221 233 235 248 249 254 260 252 257 263 257 260 253 273